| time (UTC) | temp C | wind direction | speed KPH | gust KPH | rain 1hr cm | rain 24hr cm | rain mn cm | humidity % | barometer mb |
| 20260504081529 | 7 | 350 | 17.7 | 38.6 | 0.00 | 0.00 | 0.00 | 63 | 1015.7 |
| 20260504044531 | 12 | 53 | 33.8 | 56.3 | 0.00 | 0.00 | 0.00 | 43 | 1011.2 |
| 20260504043031 | 13 | 32 | 30.6 | 51.5 | 0.00 | 0.00 | 0.00 | 42 | 1010.9 |
| 20260504041529 | 15 | 12 | 32.2 | 41.8 | 0.00 | 0.00 | 0.00 | 40 | 1010.3 |
| 20260504040032 | 15 | 5 | 20.9 | 37.0 | 0.00 | 0.00 | 0.00 | 39 | 1010.1 |
| 20260504034540 | 15 | 22 | 17.7 | 33.8 | 0.00 | 0.00 | 0.00 | 38 | 1009.8 |
| 20260504033031 | 15 | 11 | 25.7 | 32.2 | 0.00 | 0.00 | 0.00 | 39 | 1009.5 |
| 20260504031528 | 15 | 35 | 22.5 | 41.8 | 0.00 | 0.00 | 0.00 | 39 | 1009.2 |
| 20260504030038 | 15 | 45 | 32.2 | 40.2 | 0.00 | 0.00 | 0.00 | 40 | 1008.8 |
| 20260504024528 | 15 | 39 | 27.4 | 37.0 | 0.00 | 0.00 | 0.00 | 40 | 1008.6 |
| 20260504023031 | 16 | 44 | 24.1 | 30.6 | 0.00 | 0.00 | 0.00 | 37 | 1008.6 |
| 20260504021528 | 17 | 25 | 12.9 | 22.5 | 0.00 | 0.00 | 0.00 | 31 | 1008.7 |
| 20260504020030 | 18 | 355 | 16.1 | 20.9 | 0.00 | 0.00 | 0.00 | 26 | 1008.6 |
| 20260504014528 | 20 | 360 | 20.9 | 29.0 | 0.00 | 0.00 | 0.00 | 25 | 1008.8 |
| 20260504013028 | 20 | 360 | 20.9 | 33.8 | 0.00 | 0.00 | 0.00 | 24 | 1008.9 |
| 20260504011530 | 21 | 322 | 20.9 | 30.6 | 0.00 | 0.00 | 0.00 | 24 | 1008.9 |
| 20260504010028 | 21 | 318 | 20.9 | 32.2 | 0.00 | 0.00 | 0.00 | 23 | 1008.9 |
| 20260504004531 | 21 | 334 | 19.3 | 38.6 | 0.00 | 0.00 | 0.00 | 23 | 1009.2 |
| 20260504003029 | 21 | 350 | 27.4 | 38.6 | 0.00 | 0.00 | 0.00 | 24 | 1009.3 |
| 20260504001529 | 21 | 360 | 25.7 | 38.6 | 0.00 | 0.00 | 0.00 | 24 | 1009.3 |
| 20260504000029 | 21 | 327 | 32.2 | 40.2 | 0.00 | 0.00 | 0.00 | 23 | 1009.5 |
| 20260503234533 | 21 | 304 | 27.4 | 48.3 | 0.00 | 0.00 | 0.00 | 24 | 1009.5 |
| 20260503233027 | 21 | 289 | 22.5 | 32.2 | 0.00 | 0.00 | 0.00 | 23 | 1009.5 |
| 20260503231543 | 21 | 319 | 24.1 | 37.0 | 0.00 | 0.00 | 0.00 | 23 | 1009.5 |
| 20260503230031 | 21 | 294 | 20.9 | 35.4 | 0.00 | 0.00 | 0.00 | 23 | 1009.6 |
| 20260503224529 | 21 | 306 | 29.0 | 48.3 | 0.00 | 0.00 | 0.00 | 23 | 1009.7 |
| 20260503223030 | 22 | 298 | 24.1 | 38.6 | 0.00 | 0.00 | 0.00 | 23 | 1009.9 |
| 20260503221529 | 21 | 323 | 16.1 | 37.0 | 0.00 | 0.00 | 0.00 | 23 | 1010.0 |
| 20260503220037 | 20 | 321 | 20.9 | 43.5 | 0.00 | 0.00 | 0.00 | 24 | 1010.2 |
| 20260503214528 | 21 | 216 | 22.5 | 30.6 | 0.00 | 0.00 | 0.00 | 24 | 1010.4 |
| 20260503213048 | 21 | 288 | 24.1 | 40.2 | 0.00 | 0.00 | 0.00 | 24 | 1010.6 |
| 20260503211532 | 21 | 288 | 24.1 | 40.2 | 0.00 | 0.00 | 0.00 | 24 | 1010.8 |
| 20260503210029 | 20 | 323 | 20.9 | 37.0 | 0.00 | 0.00 | 0.00 | 25 | 1011.0 |
| 20260503204541 | 21 | 256 | 20.9 | 45.1 | 0.00 | 0.00 | 0.00 | 25 | 1011.2 |
| 20260503203033 | 21 | 254 | 17.7 | 32.2 | 0.00 | 0.00 | 0.00 | 25 | 1011.2 |
| 20260503201528 | 20 | 331 | 24.1 | 37.0 | 0.00 | 0.00 | 0.00 | 27 | 1011.3 |
| 20260503200029 | 20 | 247 | 20.9 | 40.2 | 0.00 | 0.00 | 0.00 | 26 | 1011.6 |
| 20260503194529 | 20 | 270 | 19.3 | 32.2 | 0.00 | 0.00 | 0.00 | 26 | 1011.8 |
| 20260503193030 | 20 | 279 | 14.5 | 41.8 | 0.00 | 0.00 | 0.00 | 27 | 1012.0 |
| 20260503191528 | 19 | 283 | 17.7 | 38.6 | 0.00 | 0.00 | 0.00 | 28 | 1012.2 |
| 20260503190030 | 19 | 308 | 14.5 | 33.8 | 0.00 | 0.00 | 0.00 | 27 | 1012.5 |
| 20260503184529 | 18 | 327 | 24.1 | 38.6 | 0.00 | 0.00 | 0.00 | 27 | 1012.5 |
| 20260503183040 | 19 | 244 | 19.3 | 35.4 | 0.00 | 0.00 | 0.00 | 25 | 1012.6 |
| 20260503181530 | 19 | 289 | 19.3 | 35.4 | 0.00 | 0.00 | 0.00 | 27 | 1012.8 |
| 20260503180032 | 18 | 294 | 17.7 | 30.6 | 0.00 | 0.00 | 0.00 | 27 | 1013.1 |
| 20260503174538 | 18 | 315 | 22.5 | 37.0 | 0.00 | 0.00 | 0.00 | 28 | 1013.1 |
| 20260503173031 | 18 | 350 | 22.5 | 35.4 | 0.00 | 0.00 | 0.00 | 29 | 1013.5 |
| 20260503171533 | 18 | 343 | 20.9 | 37.0 | 0.00 | 0.00 | 0.00 | 30 | 1013.5 |